Time,TemperatureF,DewpointF,PressureIn,WindDirection,WindDirectionDegrees,WindSpeedMPH,WindSpeedGustMPH,Humidity,HourlyPrecipIn,Conditions,Clouds,dailyrainin,SoftwareType,DateUTC
2017-02-25 00:00:00,35.5,32.9,30.23,ENE,75,2.0,2.0,90,0.00,,,0.00,Wunderground v.1.15,2017-02-25 08:00:00,
2017-02-25 00:10:00,35.7,33.1,30.22,NE,55,3.0,3.0,90,0.00,,,0.00,Wunderground v.1.15,2017-02-25 08:10:00,
2017-02-25 00:15:00,35.6,33.0,30.22,NE,52,3.0,4.0,90,0.00,,,0.00,Wunderground v.1.15,2017-02-25 08:15:00,
2017-02-25 00:20:00,35.5,32.9,30.22,ENE,65,3.0,4.0,90,0.00,,,0.00,Wunderground v.1.15,2017-02-25 08:20:00,
2017-02-25 00:25:00,35.5,32.9,30.22,NE,53,4.0,4.0,90,0.00,,,0.00,Wunderground v.1.15,2017-02-25 08:25:00,
2017-02-25 00:35:00,35.2,32.6,30.22,ENE,59,4.0,4.0,90,0.00,,,0.00,Wunderground v.1.15,2017-02-25 08:35:00,
2017-02-25 00:45:00,35.0,32.4,30.22,East,79,3.0,3.0,90,0.00,,,0.00,Wunderground v.1.15,2017-02-25 08:45:00,
2017-02-25 00:50:00,34.7,32.1,30.22,ESE,115,3.0,3.0,90,0.00,,,0.00,Wunderground v.1.15,2017-02-25 08:50:00,
2017-02-25 00:55:00,34.5,32.1,30.22,ENE,77,3.0,3.0,91,0.00,,,0.00,Wunderground v.1.15,2017-02-25 08:55:00,
2017-02-25 01:00:00,34.7,32.3,30.22,ENE,63,3.0,3.0,91,0.00,,,0.00,Wunderground v.1.15,2017-02-25 09:00:00,
2017-02-25 01:10:00,34.8,32.2,30.22,ENE,78,4.0,4.0,90,0.00,,,0.00,Wunderground v.1.15,2017-02-25 09:10:00,
2017-02-25 01:20:00,34.5,31.9,30.22,ENE,57,3.0,3.0,90,0.00,,,0.00,Wunderground v.1.15,2017-02-25 09:20:00,
2017-02-25 01:30:00,34.1,31.7,30.23,East,80,3.0,4.0,91,0.00,,,0.00,Wunderground v.1.15,2017-02-25 09:30:00,
2017-02-25 01:35:00,34.2,31.8,30.22,ENE,67,3.0,5.0,91,0.00,,,0.00,Wunderground v.1.15,2017-02-25 09:35:00,
2017-02-25 01:40:00,34.4,32.0,30.22,East,79,4.0,4.0,91,0.00,,,0.00,Wunderground v.1.15,2017-02-25 09:40:00,
2017-02-25 01:45:00,34.5,32.1,30.22,East,86,5.0,5.0,91,0.00,,,0.00,Wunderground v.1.15,2017-02-25 09:45:00,
2017-02-25 01:55:00,34.1,31.7,30.22,East,99,3.0,5.0,91,0.00,,,0.00,Wunderground v.1.15,2017-02-25 09:55:00,
2017-02-25 02:01:00,34.2,32.1,30.22,East,79,3.0,4.0,92,0.00,,,0.00,Wunderground v.1.15,2017-02-25 10:01:00,
2017-02-25 02:10:00,34.8,32.4,30.22,ENE,72,6.0,6.0,91,0.00,,,0.00,Wunderground v.1.15,2017-02-25 10:10:00,
2017-02-25 02:20:00,35.4,32.8,30.21,ENE,77,6.0,6.0,90,0.00,,,0.00,Wunderground v.1.15,2017-02-25 10:20:00,
2017-02-25 02:25:00,35.6,33.0,30.21,East,82,6.0,6.0,90,0.00,,,0.00,Wunderground v.1.15,2017-02-25 10:25:00,
2017-02-25 02:35:00,35.3,32.7,30.21,East,88,3.0,3.0,90,0.00,,,0.00,Wunderground v.1.15,2017-02-25 10:35:00,
2017-02-25 02:45:00,35.5,33.1,30.20,ESE,106,3.0,3.0,91,0.00,,,0.00,Wunderground v.1.15,2017-02-25 10:45:00,
2017-02-25 02:50:00,35.4,33.0,30.20,ESE,105,2.0,3.0,91,0.00,,,0.00,Wunderground v.1.15,2017-02-25 10:50:00,
2017-02-25 02:55:00,35.4,33.0,30.20,East,86,1.0,1.0,91,0.00,,,0.00,Wunderground v.1.15,2017-02-25 10:55:00,
2017-02-25 03:00:00,35.5,33.1,30.20,East,101,1.0,1.0,91,0.00,,,0.00,Wunderground v.1.15,2017-02-25 11:00:00,
2017-02-25 03:10:00,35.2,32.8,30.19,East,81,0.0,2.0,91,0.00,,,0.00,Wunderground v.1.15,2017-02-25 11:10:00,
2017-02-25 03:20:00,35.5,33.4,30.19,ENE,65,3.0,3.0,92,0.00,,,0.00,Wunderground v.1.15,2017-02-25 11:20:00,
2017-02-25 03:25:00,35.7,33.3,30.19,East,89,3.0,3.0,91,0.00,,,0.00,Wunderground v.1.15,2017-02-25 11:25:00,
2017-02-25 03:30:00,35.7,33.3,30.19,ESE,109,2.0,2.0,91,0.00,,,0.00,Wunderground v.1.15,2017-02-25 11:30:00,
2017-02-25 03:40:00,35.6,33.5,30.19,ESE,110,1.0,1.0,92,0.00,,,0.00,Wunderground v.1.15,2017-02-25 11:40:00,
2017-02-25 03:45:00,35.7,33.6,30.19,East,95,2.0,2.0,92,0.00,,,0.00,Wunderground v.1.15,2017-02-25 11:45:00,
2017-02-25 03:55:00,35.9,33.5,30.19,ENE,77,2.0,3.0,91,0.00,,,0.00,Wunderground v.1.15,2017-02-25 11:55:00,
2017-02-25 04:00:00,36.0,33.6,30.19,East,80,3.0,3.0,91,0.00,,,0.00,Wunderground v.1.15,2017-02-25 12:00:00,
2017-02-25 04:10:00,36.1,33.7,30.19,East,81,3.0,3.0,91,0.00,,,0.00,Wunderground v.1.15,2017-02-25 12:10:00,
2017-02-25 04:15:00,36.3,33.9,30.19,ENE,76,2.0,3.0,91,0.00,,,0.00,Wunderground v.1.15,2017-02-25 12:15:00,
2017-02-25 04:25:00,36.2,33.5,30.19,ENE,71,1.0,2.0,90,0.00,,,0.00,Wunderground v.1.15,2017-02-25 12:25:00,
2017-02-25 04:30:00,36.0,33.4,30.19,ENE,58,2.0,2.0,90,0.00,,,0.00,Wunderground v.1.15,2017-02-25 12:30:00,
2017-02-25 04:40:00,35.8,33.4,30.19,NE,44,2.0,2.0,91,0.00,,,0.00,Wunderground v.1.15,2017-02-25 12:40:00,
2017-02-25 04:50:00,36.0,33.4,30.19,NE,56,2.0,3.0,90,0.00,,,0.00,Wunderground v.1.15,2017-02-25 12:50:00,
2017-02-25 04:55:00,35.8,33.2,30.19,ENE,75,3.0,3.0,90,0.00,,,0.00,Wunderground v.1.15,2017-02-25 12:55:00,
2017-02-25 05:00:00,35.4,32.8,30.19,East,92,2.0,2.0,90,0.00,,,0.00,Wunderground v.1.15,2017-02-25 13:00:00,
2017-02-25 05:10:00,35.1,33.0,30.19,ENE,64,2.0,4.0,92,0.00,,,0.00,Wunderground v.1.15,2017-02-25 13:10:00,
2017-02-25 05:20:00,34.8,32.7,30.19,ESE,107,2.0,2.0,92,0.00,,,0.00,Wunderground v.1.15,2017-02-25 13:20:00,
2017-02-25 05:25:00,34.5,32.4,30.19,ENE,75,1.0,5.0,92,0.00,,,0.00,Wunderground v.1.15,2017-02-25 13:25:00,
2017-02-25 05:30:00,34.7,32.9,30.19,ENE,66,3.0,6.0,93,0.00,,,0.00,Wunderground v.1.15,2017-02-25 13:30:00,
2017-02-25 05:40:00,35.1,33.0,30.19,ESE,105,3.0,3.0,92,0.00,,,0.00,Wunderground v.1.15,2017-02-25 13:40:00,
2017-02-25 05:50:00,35.4,33.3,30.19,ENE,68,3.0,4.0,92,0.00,,,0.00,Wunderground v.1.15,2017-02-25 13:50:00,
2017-02-25 06:00:00,35.7,33.6,30.19,East,98,3.0,3.0,92,0.00,,,0.00,Wunderground v.1.15,2017-02-25 14:00:00,
2017-02-25 06:10:00,36.1,33.7,30.19,East,88,3.0,3.0,91,0.00,,,0.00,Wunderground v.1.15,2017-02-25 14:10:00,
2017-02-25 06:20:00,35.1,33.0,30.19,ENE,74,1.0,1.0,92,0.00,,,0.00,Wunderground v.1.15,2017-02-25 14:20:00,
2017-02-25 06:25:00,35.0,32.9,30.19,East,88,0.0,1.0,92,0.00,,,0.00,Wunderground v.1.15,2017-02-25 14:25:00,
2017-02-25 06:35:00,34.3,32.2,30.18,East,82,1.0,1.0,92,0.00,,,0.00,Wunderground v.1.15,2017-02-25 14:35:00,
2017-02-25 06:45:00,34.5,32.7,30.18,East,100,2.0,2.0,93,0.00,,,0.00,Wunderground v.1.15,2017-02-25 14:45:00,
2017-02-25 06:50:00,34.7,32.9,30.18,SSE,165,2.0,2.0,93,0.00,,,0.00,Wunderground v.1.15,2017-02-25 14:50:00,
2017-02-25 06:55:00,34.4,32.3,30.19,SSE,154,2.0,2.0,92,0.00,,,0.00,Wunderground v.1.15,2017-02-25 14:55:00,
2017-02-25 07:01:00,34.5,32.7,30.19,East,91,1.0,2.0,93,0.00,,,0.00,Wunderground v.1.15,2017-02-25 15:01:00,
2017-02-25 07:10:00,34.9,33.3,30.19,ESE,105,2.0,2.0,94,0.00,,,0.00,Wunderground v.1.15,2017-02-25 15:10:00,
2017-02-25 07:20:00,34.6,32.8,30.19,ESE,123,0.0,1.0,93,0.00,,,0.00,Wunderground v.1.15,2017-02-25 15:20:00,
2017-02-25 07:30:00,34.3,32.5,30.20,ESE,122,0.0,0.0,93,0.00,,,0.00,Wunderground v.1.15,2017-02-25 15:30:00,
2017-02-25 07:35:00,34.5,33.0,30.20,ESE,114,0.0,0.0,94,0.00,,,0.00,Wunderground v.1.15,2017-02-25 15:35:00,
2017-02-25 07:40:00,34.8,33.2,30.19,SE,131,0.0,0.0,94,0.00,,,0.00,Wunderground v.1.15,2017-02-25 15:40:00,
2017-02-25 07:50:00,35.2,33.4,30.19,SE,146,0.0,1.0,93,0.00,,,0.00,Wunderground v.1.15,2017-02-25 15:50:00,
2017-02-25 07:55:00,35.4,33.8,30.19,ESE,120,0.0,1.0,94,0.00,,,0.00,Wunderground v.1.15,2017-02-25 15:55:00,
2017-02-25 08:00:00,35.7,34.1,30.19,SE,129,0.0,2.0,94,0.00,,,0.00,Wunderground v.1.15,2017-02-25 16:00:00,
2017-02-25 08:10:00,36.7,34.9,30.19,ESE,105,1.0,1.0,93,0.00,,,0.00,Wunderground v.1.15,2017-02-25 16:10:00,
2017-02-25 08:15:00,37.6,35.8,30.20,East,93,1.0,1.0,93,0.00,,,0.00,Wunderground v.1.15,2017-02-25 16:15:00,
2017-02-25 08:25:00,38.5,35.8,30.19,ESE,120,3.0,3.0,90,0.00,,,0.00,Wunderground v.1.15,2017-02-25 16:25:00,
2017-02-25 08:30:00,39.1,36.7,30.19,SE,132,3.0,3.0,91,0.00,,,0.00,Wunderground v.1.15,2017-02-25 16:30:00,
2017-02-25 08:40:00,40.1,37.4,30.18,ESE,123,2.0,2.0,90,0.00,,,0.00,Wunderground v.1.15,2017-02-25 16:40:00,
2017-02-25 08:45:00,40.9,38.2,30.18,ESE,109,2.0,3.0,90,0.00,,,0.00,Wunderground v.1.15,2017-02-25 16:45:00,
2017-02-25 08:50:00,41.8,38.5,30.18,ESE,116,2.0,2.0,88,0.00,,,0.00,Wunderground v.1.15,2017-02-25 16:50:00,
2017-02-25 08:55:00,42.8,38.0,30.18,ESE,113,3.0,5.0,83,0.00,,,0.00,Wunderground v.1.15,2017-02-25 16:55:00,
2017-02-25 09:01:00,43.4,38.0,30.18,ESE,104,4.0,6.0,81,0.00,,,0.00,Wunderground v.1.15,2017-02-25 17:01:00,
2017-02-25 09:10:00,44.4,38.3,30.19,ESE,105,4.0,4.0,79,0.00,,,0.00,Wunderground v.1.15,2017-02-25 17:10:00,
2017-02-25 09:20:00,44.4,38.3,30.18,East,91,5.0,5.0,79,0.00,,,0.00,Wunderground v.1.15,2017-02-25 17:20:00,
2017-02-25 09:30:00,45.1,38.6,30.19,SE,145,5.0,5.0,78,0.00,,,0.00,Wunderground v.1.15,2017-02-25 17:30:00,
2017-02-25 09:40:00,45.7,38.2,30.18,ESE,117,5.0,5.0,75,0.00,,,0.00,Wunderground v.1.15,2017-02-25 17:40:00,
2017-02-25 09:45:00,46.3,38.1,30.17,ESE,104,5.0,5.0,73,0.00,,,0.00,Wunderground v.1.15,2017-02-25 17:45:00,
2017-02-25 09:55:00,47.0,37.7,30.17,ESE,113,4.0,4.0,70,0.00,,,0.00,Wunderground v.1.15,2017-02-25 17:55:00,
2017-02-25 10:00:00,47.3,37.6,30.17,East,89,3.0,4.0,69,0.00,,,0.00,Wunderground v.1.15,2017-02-25 18:00:00,
2017-02-25 10:10:00,48.3,38.2,30.17,SSE,153,5.0,5.0,68,0.00,,,0.00,Wunderground v.1.15,2017-02-25 18:10:00,
2017-02-25 10:20:00,48.9,38.0,30.17,ESE,103,4.0,4.0,66,0.00,,,0.00,Wunderground v.1.15,2017-02-25 18:20:00,
2017-02-25 10:25:00,49.4,38.5,30.17,ESE,110,4.0,4.0,66,0.00,,,0.00,Wunderground v.1.15,2017-02-25 18:25:00,
2017-02-25 10:30:00,49.5,38.6,30.16,SSE,154,4.0,5.0,66,0.00,,,0.00,Wunderground v.1.15,2017-02-25 18:30:00,
2017-02-25 10:35:00,49.9,38.2,30.16,SSW,210,5.0,5.0,64,0.00,,,0.00,Wunderground v.1.15,2017-02-25 18:35:00,
2017-02-25 10:45:00,49.7,38.0,30.16,East,101,4.0,4.0,64,0.00,,,0.00,Wunderground v.1.15,2017-02-25 18:45:00,
2017-02-25 10:50:00,49.7,38.0,30.16,SSW,200,4.0,4.0,64,0.00,,,0.00,Wunderground v.1.15,2017-02-25 18:50:00,
2017-02-25 11:00:00,50.4,37.9,30.15,SE,134,4.0,7.0,62,0.00,,,0.00,Wunderground v.1.15,2017-02-25 19:00:00,
2017-02-25 11:10:00,50.7,36.9,30.15,East,91,5.0,5.0,59,0.00,,,0.00,Wunderground v.1.15,2017-02-25 19:10:00,
2017-02-25 11:20:00,51.0,36.7,30.15,ESE,108,6.0,10.0,58,0.00,,,0.00,Wunderground v.1.15,2017-02-25 19:20:00,